Location: Springville
(37.3745°N, 89.2676°W)
Time: 00:35:44
(UTC+00:00)

Okean O Rocket - Pass Details

Date: 29 October 2020
Orbit: 623 x 644 km, 98.2° (Epoch: 04 December)

Event Time Altitude Azimuth Distance (km) Brightness Sun altitude
Rises 23:48:54 0° 179° (S) 2,907 5.1 -10.0°
Reaches altitude 10° 23:51:09 10° 185° (S) 2,001 4.4 -10.4°
Maximum altitude 23:55:21 48° 260° (W) 827 2.8 -11.2°
Drops below altitude 10° 23:59:34 10° 335° (NNW) 2,005 4.4 -12.0°
Sets 00:01:50 0° 341° (NNW) 2,914 5.2 -12.5°
